TimeCEST,TemperatureF,Dew PointF,Humidity,Sea Level PressureIn,VisibilityMPH,Wind Direction,Wind SpeedMPH,Gust SpeedMPH,PrecipitationIn,Events,Conditions,WindDirDegrees,DateUTC
12:00 AM,64.4,57.2,77,30.12,-9999.0,NW,8.1,-,N/A,,Clear,310,2013-07-09 22:00:00
12:30 AM,62.6,55.4,77,30.12,-9999.0,NW,6.9,-,N/A,,Clear,320,2013-07-09 22:30:00
1:00 AM,62.6,55.4,77,30.12,-9999.0,NW,5.8,-,N/A,,Clear,320,2013-07-09 23:00:00
1:30 AM,62.6,55.4,77,30.12,-9999.0,NW,5.8,-,N/A,,Clear,320,2013-07-09 23:30:00
2:00 AM,62,55,70,30.11,12,WNW,4.5,,,,Scattered Clouds,300,2013-07-10 00:00:00
2:00 AM,62.6,55.4,77,30.12,-9999.0,NW,6.9,-,N/A,,Clear,310,2013-07-10 00:00:00
2:30 AM,62.6,53.6,72,30.12,-9999.0,NW,4.6,-,N/A,,Clear,310,2013-07-10 00:30:00
3:00 AM,60.8,53.6,77,30.09,-9999.0,NW,5.8,-,N/A,,Clear,310,2013-07-10 01:00:00
3:30 AM,59.0,53.6,82,30.09,-9999.0,WNW,5.8,-,N/A,,Clear,300,2013-07-10 01:30:00
4:00 AM,59.0,53.6,82,30.09,-9999.0,NW,8.1,-,N/A,,Clear,320,2013-07-10 02:00:00
4:30 AM,60.8,53.6,77,30.09,-9999.0,NW,6.9,-,N/A,,Clear,310,2013-07-10 02:30:00
5:00 AM,60.8,53.6,77,30.06,-9999.0,WNW,4.6,-,N/A,,Clear,300,2013-07-10 03:00:00
5:30 AM,60.8,53.6,77,30.06,-9999.0,NW,4.6,-,N/A,,Clear,310,2013-07-10 03:30:00
6:00 AM,60.8,53.6,77,30.06,6.2,WNW,3.5,-,N/A,,Partly Cloudy,290,2013-07-10 04:00:00
6:30 AM,60.8,53.6,77,30.06,6.2,WNW,3.5,-,N/A,,Partly Cloudy,290,2013-07-10 04:30:00
7:00 AM,62.6,57.2,82,30.06,-9999.0,WNW,4.6,-,N/A,,Clear,290,2013-07-10 05:00:00
7:30 AM,66.2,57.2,73,30.06,-9999.0,NW,8.1,-,N/A,,Clear,320,2013-07-10 05:30:00
8:00 AM,68,57,59,30.05,16,NNW,4.5,,,,Scattered Clouds,330,2013-07-10 06:00:00
8:00 AM,68.0,57.2,68,30.06,-9999.0,NNW,8.1,-,N/A,,Clear,330,2013-07-10 06:00:00
8:30 AM,69.8,57.2,64,30.06,-9999.0,NNW,9.2,-,N/A,,Clear,330,2013-07-10 06:30:00
9:00 AM,69.8,57.2,64,30.06,-9999.0,NW,8.1,-,N/A,,Clear,320,2013-07-10 07:00:00
9:30 AM,71.6,57.2,60,30.06,-9999.0,NNW,6.9,-,N/A,,Clear,340,2013-07-10 07:30:00
10:00 AM,71.6,57.2,60,30.06,-9999.0,North,8.1,-,N/A,,Clear,350,2013-07-10 08:00:00
10:30 AM,73.4,55.4,53,30.06,-9999.0,NNW,9.2,-,N/A,,Clear,340,2013-07-10 08:30:00
11:00 AM,73.4,55.4,53,30.06,6.2,NNW,10.4,-,N/A,,Partly Cloudy,330,2013-07-10 09:00:00
11:30 AM,75.2,57.2,53,30.06,6.2,North,9.2,-,N/A,,Partly Cloudy,350,2013-07-10 09:30:00
12:00 PM,75.2,57.2,53,30.04,6.2,North,8.1,-,N/A,,Scattered Clouds,350,2013-07-10 10:00:00
12:30 PM,75.2,57.2,53,30.04,6.2,North,8.1,-,N/A,,Scattered Clouds,350,2013-07-10 10:30:00
1:00 PM,75.2,57.2,53,30.04,6.2,North,10.4,-,N/A,,Scattered Clouds,350,2013-07-10 11:00:00
1:30 PM,75.2,55.4,50,30.04,-9999.0,NW,11.5,-,N/A,,Clear,320,2013-07-10 11:30:00
2:00 PM,76,55,38,29.97,25,NW,8.9,,,,Partly Cloudy,310,2013-07-10 12:00:00
2:00 PM,77.0,57.2,50,30.01,-9999.0,NW,9.2,-,N/A,,Clear,320,2013-07-10 12:00:00
2:30 PM,77.0,55.4,47,30.01,-9999.0,WNW,10.4,-,N/A,,Clear,300,2013-07-10 12:30:00
3:00 PM,77.0,55.4,47,30.01,-9999.0,NNW,9.2,-,N/A,,Clear,330,2013-07-10 13:00:00
3:30 PM,77.0,55.4,47,30.01,-9999.0,NNW,11.5,-,N/A,,Clear,340,2013-07-10 13:30:00
4:00 PM,77.0,55.4,47,29.98,-9999.0,North,9.2,-,N/A,,Clear,350,2013-07-10 14:00:00
4:30 PM,77.0,55.4,47,29.98,-9999.0,NNW,12.7,-,N/A,,Clear,340,2013-07-10 14:30:00
5:00 PM,77.0,55.4,47,29.98,-9999.0,North,12.7,-,N/A,,Clear,350,2013-07-10 15:00:00
5:30 PM,75.2,55.4,50,29.98,-9999.0,NNW,12.7,-,N/A,,Clear,340,2013-07-10 15:30:00
6:00 PM,74,57,45,29.93,25,North,11.2,,,,Scattered Clouds,0,2013-07-10 16:00:00
6:00 PM,73.4,57.2,57,29.98,-9999.0,North,13.8,-,N/A,,Clear,350,2013-07-10 16:00:00
6:30 PM,71.6,59.0,64,29.98,-9999.0,North,15.0,-,N/A,,Clear,360,2013-07-10 16:30:00
7:00 PM,71,58,55,29.93,28,North,11.2,,,,Scattered Clouds,0,2013-07-10 17:00:00
7:00 PM,71.6,57.2,60,29.95,-9999.0,North,13.8,-,N/A,,Clear,360,2013-07-10 17:00:00
7:30 PM,71.6,55.4,57,29.95,-9999.0,North,11.5,-,N/A,,Clear,360,2013-07-10 17:30:00
8:00 PM,69,55,51,29.94,28,North,8.9,,,,Partly Cloudy,0,2013-07-10 18:00:00
8:00 PM,69.8,55.4,60,29.98,-9999.0,North,9.2,-,N/A,,Clear,10,2013-07-10 18:00:00
8:30 PM,68.0,55.4,64,29.98,-9999.0,North,9.2,-,N/A,,Clear,10,2013-07-10 18:30:00
9:00 PM,67,55,57,29.95,28,North,8.9,,,,Scattered Clouds,0,2013-07-10 19:00:00
9:00 PM,68.0,55.4,64,29.98,-9999.0,North,9.2,-,N/A,,Clear,360,2013-07-10 19:00:00
9:30 PM,66.2,55.4,68,29.98,6.2,North,13.8,-,N/A,,Partly Cloudy,350,2013-07-10 19:30:00
10:00 PM,64,56,67,29.98,22,NNW,15.7,,,,Partly Cloudy,340,2013-07-10 20:00:00
10:00 PM,64.4,55.4,73,30.01,6.2,NNW,16.1,-,N/A,,Partly Cloudy,340,2013-07-10 20:00:00
10:30 PM,62.6,55.4,77,30.01,6.2,NNW,13.8,-,N/A,,Mostly Cloudy,340,2013-07-10 20:30:00
11:00 PM,61,54,72,30.01,22,North,8.9,,,,Partly Cloudy,350,2013-07-10 21:00:00
11:00 PM,60.8,55.4,82,30.01,6.2,NNW,11.5,-,N/A,,Scattered Clouds,340,2013-07-10 21:00:00
11:30 PM,59.0,53.6,82,30.01,6.2,NNW,6.9,-,N/A,,Partly Cloudy,340,2013-07-10 21:30:00